TimeCDT,TemperatureF,Dew PointF,Humidity,Sea Level PressureIn,VisibilityMPH,Wind Direction,Wind SpeedMPH,Gust SpeedMPH,PrecipitationIn,Events,Conditions,WindDirDegrees,DateUTC
12:53 AM,-9999,-9999,N/A,30.10,3.0,Calm,Calm,-,N/A,,Clear,0,2013-10-10 05:53:00
1:02 AM,-9999,-9999,N/A,30.10,2.5,Calm,Calm,-,N/A,,Clear,0,2013-10-10 06:02:00
1:12 AM,-9999,-9999,N/A,30.10,4.0,Calm,Calm,-,N/A,,Haze,0,2013-10-10 06:12:00
1:53 AM,-9999,-9999,N/A,30.10,5.0,Calm,Calm,-,N/A,,Haze,0,2013-10-10 06:53:00
1:59 AM,-9999,-9999,N/A,30.10,1.8,Calm,Calm,-,N/A,,Clear,0,2013-10-10 06:59:00
2:04 AM,-9999,-9999,N/A,30.10,0.5,Calm,Calm,-,N/A,Fog,Fog,0,2013-10-10 07:04:00
2:13 AM,-9999,-9999,N/A,30.10,0.2,Calm,Calm,-,N/A,Fog,Fog,0,2013-10-10 07:13:00
2:23 AM,-9999,-9999,N/A,30.10,0.8,Calm,Calm,-,N/A,,Mist,0,2013-10-10 07:23:00
2:30 AM,-9999,-9999,N/A,30.10,2.0,Calm,Calm,-,N/A,,Scattered Clouds,0,2013-10-10 07:30:00
2:37 AM,-9999,-9999,N/A,30.10,0.8,Calm,Calm,-,N/A,,Partly Cloudy,0,2013-10-10 07:37:00
2:53 AM,-9999,-9999,N/A,30.10,2.5,Calm,Calm,-,N/A,,Scattered Clouds,0,2013-10-10 07:53:00
3:00 AM,-9999,-9999,N/A,30.10,6.0,Calm,Calm,-,N/A,,Haze,0,2013-10-10 08:00:00
3:11 AM,-9999,-9999,N/A,30.10,1.5,Calm,Calm,-,N/A,,Partly Cloudy,0,2013-10-10 08:11:00
3:13 AM,-9999,-9999,N/A,30.10,0.8,Calm,Calm,-,N/A,,Scattered Clouds,0,2013-10-10 08:13:00
3:16 AM,-9999,-9999,N/A,30.10,0.5,Calm,Calm,-,N/A,Fog,Fog,0,2013-10-10 08:16:00
3:24 AM,-9999,-9999,N/A,30.10,0.2,Calm,Calm,-,N/A,Fog,Fog,0,2013-10-10 08:24:00
3:36 AM,-9999,-9999,N/A,30.10,0.2,Calm,Calm,-,N/A,Fog,Fog,0,2013-10-10 08:36:00
3:53 AM,-9999,-9999,N/A,30.10,0.2,Calm,Calm,-,N/A,Fog,Fog,0,2013-10-10 08:53:00
4:53 AM,-9999,-9999,N/A,30.11,0.2,Calm,Calm,-,N/A,Fog,Fog,0,2013-10-10 09:53:00
5:23 AM,-9999,-9999,N/A,30.11,0.5,Calm,Calm,-,N/A,Fog,Fog,0,2013-10-10 10:23:00
5:32 AM,-9999,-9999,N/A,30.12,0.2,Calm,Calm,-,N/A,Fog,Fog,0,2013-10-10 10:32:00
5:53 AM,-9999,-9999,N/A,30.12,0.5,Calm,Calm,-,N/A,Fog,Fog,0,2013-10-10 10:53:00
6:09 AM,-9999,-9999,N/A,30.12,0.5,Calm,Calm,-,N/A,Fog,Fog,0,2013-10-10 11:09:00
6:14 AM,-9999,-9999,N/A,30.12,1.0,Calm,Calm,-,N/A,,Mist,0,2013-10-10 11:14:00
6:21 AM,-9999,-9999,N/A,30.12,0.5,East,3.5,-,N/A,Fog,Fog,100,2013-10-10 11:21:00
6:32 AM,-9999,-9999,N/A,30.12,0.8,Calm,Calm,-,N/A,,Mist,0,2013-10-10 11:32:00
6:38 AM,-9999,-9999,N/A,30.12,0.2,ENE,3.5,-,N/A,Fog,Fog,70,2013-10-10 11:38:00
6:53 AM,-9999,-9999,N/A,30.12,0.2,NE,3.5,-,N/A,Fog,Fog,50,2013-10-10 11:53:00
7:25 AM,-9999,-9999,N/A,30.13,0.2,Calm,Calm,-,N/A,Fog,Fog,0,2013-10-10 12:25:00
7:53 AM,-9999,-9999,N/A,30.14,0.2,Calm,Calm,-,N/A,Fog,Fog,0,2013-10-10 12:53:00
8:12 AM,-9999,-9999,N/A,30.14,0.8,Calm,Calm,-,N/A,,Mist,0,2013-10-10 13:12:00
8:23 AM,-9999,-9999,N/A,30.14,0.5,Calm,Calm,-,N/A,Fog,Fog,0,2013-10-10 13:23:00
8:30 AM,-9999,-9999,N/A,30.14,1.0,Calm,Calm,-,N/A,,Mist,0,2013-10-10 13:30:00
8:46 AM,-9999,-9999,N/A,30.15,0.8,Calm,Calm,-,N/A,,Mist,0,2013-10-10 13:46:00
8:53 AM,-9999,-9999,N/A,30.15,0.8,Calm,Calm,-,N/A,,Mist,0,2013-10-10 13:53:00
9:14 AM,-9999,-9999,N/A,30.15,1.8,Calm,Calm,-,N/A,,Overcast,0,2013-10-10 14:14:00
9:53 AM,-9999,-9999,N/A,30.16,2.5,Calm,Calm,-,N/A,,Overcast,0,2013-10-10 14:53:00
10:04 AM,-9999,-9999,N/A,30.16,4.0,Calm,Calm,-,N/A,,Haze,0,2013-10-10 15:04:00
10:53 AM,-9999,-9999,N/A,30.16,7.0,Calm,Calm,-,N/A,,Overcast,0,2013-10-10 15:53:00
11:53 AM,68.0,64.0,87,30.15,9.0,Calm,Calm,-,N/A,,Overcast,0,2013-10-10 16:53:00
12:53 PM,70.0,63.0,78,30.14,10.0,Calm,Calm,-,N/A,,Overcast,0,2013-10-10 17:53:00
1:21 PM,69.8,62.6,78,30.13,10.0,Calm,Calm,-,N/A,,Overcast,0,2013-10-10 18:21:00
1:38 PM,-9999,-9999,N/A,30.12,10.0,Variable,3.5,-,N/A,,Overcast,0,2013-10-10 18:38:00
1:45 PM,-9999,-9999,N/A,30.11,10.0,East,3.5,-,N/A,,Overcast,100,2013-10-10 18:45:00
1:53 PM,-9999,-9999,N/A,30.11,10.0,Calm,Calm,-,N/A,,Mostly Cloudy,0,2013-10-10 18:53:00
2:06 PM,-9999,-9999,N/A,30.10,10.0,East,4.6,-,N/A,,Scattered Clouds,80,2013-10-10 19:06:00
2:53 PM,-9999,-9999,N/A,30.07,10.0,ESE,3.5,-,N/A,,Scattered Clouds,110,2013-10-10 19:53:00
3:53 PM,-9999,-9999,N/A,30.05,10.0,ENE,5.8,-,N/A,,Scattered Clouds,70,2013-10-10 20:53:00
4:53 PM,-9999,-9999,N/A,30.05,10.0,Calm,Calm,-,N/A,,Mostly Cloudy,0,2013-10-10 21:53:00
5:53 PM,-9999,-9999,N/A,30.04,10.0,Calm,Calm,-,N/A,,Clear,0,2013-10-10 22:53:00
6:49 PM,-9999,-9999,N/A,30.02,10.0,Calm,Calm,-,N/A,,Partly Cloudy,0,2013-10-10 23:49:00
6:53 PM,-9999,-9999,N/A,30.02,10.0,Calm,Calm,-,N/A,,Clear,0,2013-10-10 23:53:00
7:23 PM,-9999,-9999,N/A,30.02,10.0,Calm,Calm,-,N/A,,Partly Cloudy,0,2013-10-11 00:23:00
7:53 PM,-9999,-9999,N/A,30.02,10.0,Calm,Calm,-,N/A,,Clear,0,2013-10-11 00:53:00
8:53 PM,-9999,-9999,N/A,30.02,10.0,Calm,Calm,-,N/A,,Clear,0,2013-10-11 01:53:00
9:53 PM,-9999,-9999,N/A,30.02,9.0,Calm,Calm,-,N/A,,Clear,0,2013-10-11 02:53:00
10:53 PM,-9999,-9999,N/A,30.02,8.0,Calm,Calm,-,N/A,,Clear,0,2013-10-11 03:53:00
11:53 PM,-9999,-9999,N/A,30.01,6.0,Calm,Calm,-,0.01,,Haze,0,2013-10-11 04:53:00